User: anonymous   Login
Location: NJAA Observatory
(40.6819°N, 74.8979°W)
Time: 14:47:22
(UTC-05:00)
Language:

Cosmos 1328 Rocket - Orbit

View from above orbital plane
View from above orbital plane
View from above satellite
View from above satellite

Ground track
Ground track

The orbit data is extracted from the following two-line orbital elements,

1 12988U 81117B   18023.55127378  .00000060  00000-0  42582-5 0  9990
2 12988  82.5224 226.6418 0017622 195.0488 219.9846 14.84686920952514
Epoch (UTC): 23 January 2018 13:13:50
Eccentricity: 0.0017622
inclination: 82.5224°
perigee height: 602 km
apogee height: 627 km
right ascension of ascending node: 226.6418°
argument of perigee: 195.0488°
revolutions per day: 14.84686920
mean anomaly at epoch: 219.9846°
orbit number at epoch: 95251

The dashed part of the orbit path shows where the satellite is in the earth's shadow,  

DLR